This demonstration page uses our WeatherBlox Daily Observations layout. Learn more.

Left ArrowRight Arrow

41.86663, -103.66717

Hourly Observations for January 24, 2016

Temp ( °F °C ) Dew Point ( °F °C ) Humidity (%) Winds ( mph kmh ) Pressure ( in mb ) Visibility ( mi km ) Precip ( " mm )
12:53 am 00:53 Clear 28 -2.2 23 -5 81 81 N N/A 29.78 1008 10 16 N/A
1:53 am 01:53 Clear 29 -1.7 23 -5 78 78 N N/A 29.76 1008 10 16 N/A
2:53 am 02:53 Clear 28 -2.2 24 -4.4 85 85 NNW 3 6 29.78 1008 10 16 N/A
3:53 am 03:53 Clear 28 -2.2 24 -4.4 85 85 N N/A 29.78 1008 10 16 N/A
4:53 am 04:53 Mostly Clear 29 -1.7 25 -3.9 85 85 NNE 3 6 29.77 1008 10 16 N/A
5:53 am 05:53 Partly Cloudy 30 -1.1 26 -3.3 85 85 N 5 7 29.77 1008 10 16 N/A
6:53 am 06:53 Mostly Cloudy 29 -1.7 26 -3.3 89 89 W 3 6 29.78 1008 10 16 N/A
7:53 am 07:53 Mostly Cloudy 30 -1.1 26 -3.3 85 85 SW 10 17 29.77 1008 10 16 N/A
8:53 am 08:53 Partly Cloudy 33 0.6 26 -3.3 75 75 NNW 6 9 29.74 1007 10 16 N/A
9:53 am 09:53 Sunny 35 1.7 27 -2.8 72 72 N N/A 29.74 1007 10 16 N/A
10:53 am 10:53 Sunny 38 3.3 29 -1.7 70 70 NNW 7 11 29.72 1007 10 16 N/A
11:53 am 11:53 Sunny 38 3.3 28 -2.2 68 68 NW 8 13 29.71 1006 10 16 N/A
12:53 pm 12:53 Mostly Cloudy 40 4.4 29 -1.7 65 65 NNW 7 11 29.69 1006 10 16 N/A
1:53 pm 13:53 Cloudy 42 5.6 29 -1.7 60 60 WNW 8 13 29.66 1005 10 16 N/A
2:53 pm 14:53 Cloudy 41 5 30 -1.1 65 65 WNW 6 9 29.68 1005 10 16 N/A
3:53 pm 15:53 Mostly Cloudy 40 4.4 31 -0.6 70 70 WNW 5 7 29.70 1006 10 16 N/A
4:53 pm 16:53 Sunny 40 4.4 28 -2.2 63 63 NW 13 20 29.70 1006 10 16 N/A
5:53 pm 17:53 Mostly Cloudy 37 2.8 29 -1.7 73 73 NW 15 24 29.75 1008 10 16 N/A
6:53 pm 18:53 Cloudy 36 2.2 30 -1.1 79 79 WNW 9 15 29.77 1008 10 16 N/A
7:16 pm 19:16 Cloudy 37 2.8 31 -0.6 79 79 WNW 13 20 29.77 1008 10 16 N/A
7:53 pm 19:53 Cloudy 37 2.8 31 -0.6 79 79 WNW 13 20 29.78 1008 10 16 N/A
8:26 pm 20:26 Cloudy 36 2 30 -1 81 81 WNW 12 19 29.80 1009 10 16 N/A
8:50 pm 20:50 Cloudy 36 2 30 -1 81 81 NW 14 22 29.80 1009 10 16 N/A
8:53 pm 20:53 Cloudy 36 2.2 31 -0.6 82 82 NW 13 20 29.78 1009 10 16 N/A
9:53 pm 21:53 Cloudy with Light Rain 35 1.7 32 undefined 89 89 NW 17 28 29.79 1009 10 16 N/A
10:21 pm 22:21 Cloudy with Light Snow 35 1.7 32 undefined 89 89 NW 12 19 29.83 1010 9 14 0.01 0.25
10:53 pm 22:53 Cloudy with Light Rain 35 1.7 32 undefined 89 89 NW 15 24 29.80 1009 9 14 0.02 0.51
11:08 pm 23:08 Cloudy with Light Snow 36 2 32 undefined 87 87 NNW 12 19 29.83 1010 6 10 N/A
11:26 pm 23:26 Cloudy with Light Rain 36 2 32 undefined 87 87 NW 10 17 29.83 1010 10 16 N/A
11:51 pm 23:51 Cloudy with Light Snow 34 1 32 undefined 93 93 WNW 12 19 29.85 1011 7 11 0.02 0.51
11:53 pm 23:53 Cloudy with Light Snow 34 1.1 32 undefined 92 92 WNW 9 15 29.82 1010 6 10 0.02 0.51

Powered by AerisWeather